Location: Bishopstone
(51.0167°N, 1.9000°W)
Time: 08:03:02
(UTC+00:00)

Oscar 11 - Visible Passes

Search period start: 26 January 2020 00:00
Search period end: 05 February 2020 00:00
Orbit: 614 x 624 km, 97.6° (Epoch: 26 January)

Date Brightness Start Highest point End Pass type
(mag) Time Alt. Az. Time Alt. Az. Time Alt. Az.
26 Jan 8.5 06:49:06 10° NNE 06:53:17 44° E 06:57:28 10° S visible
26 Jan 7.1 17:48:16 10° SSE 17:52:32 61° ENE 17:56:50 10° N visible
26 Jan 10.0 19:26:09 10° SW 19:29:04 17° W 19:32:00 10° NW visible
27 Jan 7.7 07:06:05 10° NNE 07:10:26 64° ESE 07:14:46 10° S visible
27 Jan 7.0 18:05:15 10° SSE 18:09:35 88° E 18:13:58 10° NNW visible
27 Jan 10.4 19:44:37 10° WSW 19:46:22 12° W 19:48:08 10° WNW visible
28 Jan 10.5 05:48:57 10° ENE 05:50:46 12° E 05:52:36 10° ESE visible
28 Jan 7.5 18:22:24 10° S 18:26:41 64° W 18:31:02 10° NNW visible
29 Jan 10.2 06:05:06 10° NE 06:08:04 18° E 06:11:02 10° SE visible
29 Jan 8.3 18:39:42 10° S 18:43:50 43° W 18:48:01 10° NNW visible
30 Jan 9.6 06:21:42 10° NE 06:25:20 25° E 06:28:56 10° SSE visible
30 Jan 9.1 18:57:12 10° SSW 19:01:01 30° W 19:04:54 10° NNW visible
31 Jan 8.9 06:38:30 10° NNE 06:42:33 35° E 06:46:34 10° SSE visible
31 Jan 7.3 17:37:41 10° SE 17:41:51 49° ENE 17:46:04 10° N visible
31 Jan 9.7 19:14:56 10° SW 19:18:15 21° W 19:21:38 10° NW visible
01 Feb 8.1 06:55:26 10° NNE 06:59:43 51° E 07:03:58 10° S visible
01 Feb 7.0 17:54:35 10° SSE 17:58:54 71° ENE 18:03:15 10° N visible
01 Feb 10.2 19:33:00 10° SW 19:35:32 15° W 19:38:05 10° NW visible
02 Feb 7.2 18:11:38 10° S 18:15:59 80° WSW 18:20:21 10° NNW visible
02 Feb 10.6 19:52:10 10° W 19:52:52 10° W 19:53:33 10° WNW visible
03 Feb 10.4 05:54:50 10° NE 05:57:15 14° E 05:59:39 10° ESE visible
03 Feb 7.9 18:28:51 10° S 18:33:05 54° W 18:37:23 10° NNW visible
04 Feb 10.0 06:11:15 10° NE 06:14:32 20° E 06:17:48 10° SE visible
04 Feb 8.7 18:46:13 10° SSW 18:50:15 37° W 18:54:20 10° NNW visible
